Voltar ao catálogo

IRS 1D

AtivoCiênciaSSO
NORAD 24971·PAYLOAD·🇮🇳 India

Lançado Sep 29, 1997 de Satish Dhawan Space Centre

Loading…

Próximas Passagens (próximas 24 horas)

TLE

AtualizadoSource: Space-Track

Época: Sep 13, 2026, 22:17 UTC

1 24971U 97057A   26256.92887328  .00000101  00000-0  50753-4 0  9995
2 24971  98.8505 253.6001 0051511 327.9503  31.8552 14.35541647515341

Acompanhe IRS 1D em tempo real com AllMySat

Download on the App Store